FDX5196 RCTP-RPLC

Flight info

Callsign FDX5196
Flight time 1h 39m
Altitude 34000
Route TINHO1A TINHO B591 TACLE Q11 POTIB DCT SANRO W4 MALIB MALIB5R
Aircraft B77L/H-SDE1E2E3FGHIJ2J3J4J5M1RWXY/LB1D1

Departure

Time 2026-04-30 20:59
Airport Taiwan Taoyuan International Airport (RCTP)

Arrival

Time 2026-04-30 22:38
Airport Clark International Airport / Clark Air Base (RPLC)
Time Latitude Longitude Altitude Speed Heading
2026-04-30 20:41 25.08777 121.23813 104 ft 22 kts 229°
2026-04-30 20:42 25.08682 121.23691 105 ft 20 kts 229°
2026-04-30 20:42 25.08592 121.23578 106 ft 18 kts 229°
2026-04-30 20:42 25.08440 121.23384 106 ft 17 kts 230°
2026-04-30 20:43 25.08362 121.23284 104 ft 18 kts 229°
2026-04-30 20:43 25.08276 121.23175 108 ft 20 kts 229°
2026-04-30 20:43 25.08181 121.23053 104 ft 22 kts 229°
2026-04-30 20:44 25.07986 121.22805 107 ft 21 kts 228°
2026-04-30 20:44 25.07891 121.22686 105 ft 21 kts 229°
2026-04-30 20:44 25.07707 121.22451 106 ft 20 kts 229°
2026-04-30 20:45 25.07522 121.22215 106 ft 21 kts 229°
2026-04-30 20:45 25.07428 121.22095 106 ft 21 kts 229°
2026-04-30 20:45 25.07333 121.21975 105 ft 21 kts 229°
2026-04-30 20:46 25.07213 121.21705 108 ft 6 kts 316°
2026-04-30 20:46 25.07223 121.21694 106 ft 0 kts 318°
2026-04-30 20:54 25.07224 121.21694 106 ft 0 kts 318°
2026-04-30 20:54 25.07250 121.21668 106 ft 16 kts 318°
2026-04-30 20:54 25.07355 121.21680 106 ft 13 kts 51°
2026-04-30 20:55 25.07361 121.21688 106 ft 0 kts 50°
2026-04-30 20:58 25.07362 121.21689 106 ft 1 kts 50°
2026-04-30 20:58 25.07432 121.21779 106 ft 51 kts 49°
2026-04-30 20:59 25.08544 121.23206 221 ft 172 kts 50°
2026-04-30 20:59 25.09348 121.24232 782 ft 184 kts 49°
2026-04-30 21:00 25.11018 121.26331 2409 ft 186 kts 50°
2026-04-30 21:00 25.12968 121.28828 2979 ft 242 kts 48°
2026-04-30 21:01 25.15220 121.31743 4619 ft 259 kts 48°
2026-04-30 21:01 25.16406 121.33287 5435 ft 267 kts 48°
2026-04-30 21:01 25.18868 121.36495 7141 ft 281 kts 48°
2026-04-30 21:02 25.20148 121.38159 7993 ft 287 kts 47°
2026-04-30 21:02 25.21455 121.39860 8821 ft 293 kts 48°
2026-04-30 21:02 25.22791 121.41598 9598 ft 300 kts 47°
2026-04-30 21:02 25.24160 121.43380 10335 ft 309 kts 47°
2026-04-30 21:03 25.25603 121.45254 10680 ft 334 kts 47°
2026-04-30 21:03 25.27175 121.47297 10895 ft 363 kts 48°
2026-04-30 21:03 25.28769 121.49529 11034 ft 386 kts 58°
2026-04-30 21:03 25.29616 121.52400 11531 ft 403 kts 85°
2026-04-30 21:04 25.29289 121.55490 12311 ft 410 kts 111°
2026-04-30 21:04 25.27888 121.58161 13195 ft 409 kts 135°
2026-04-30 21:04 25.23256 121.61775 14913 ft 412 kts 157°
2026-04-30 21:05 25.20632 121.63092 15687 ft 418 kts 161°
2026-04-30 21:05 25.17922 121.64318 16402 ft 424 kts 162°
2026-04-30 21:05 25.15167 121.65533 17166 ft 429 kts 162°
2026-04-30 21:05 25.12382 121.66772 17916 ft 434 kts 162°
2026-04-30 21:06 25.09570 121.68048 18637 ft 440 kts 161°
2026-04-30 21:06 25.06726 121.69359 19319 ft 446 kts 161°
2026-04-30 21:06 25.03854 121.70699 19995 ft 451 kts 161°
2026-04-30 21:06 25.00952 121.72065 20672 ft 455 kts 161°
2026-04-30 21:07 24.98028 121.73446 21296 ft 460 kts 161°
2026-04-30 21:07 24.95067 121.74844 21852 ft 465 kts 161°
2026-04-30 21:07 24.92080 121.76255 22463 ft 469 kts 161°
2026-04-30 21:07 24.89068 121.77678 23046 ft 473 kts 161°
2026-04-30 21:08 24.86028 121.79113 23523 ft 477 kts 161°
2026-04-30 21:08 24.82959 121.80556 23988 ft 482 kts 161°
2026-04-30 21:08 24.79869 121.82010 24556 ft 485 kts 161°
2026-04-30 21:08 24.76758 121.83474 25143 ft 487 kts 161°
2026-04-30 21:09 24.73639 121.84941 25682 ft 489 kts 161°
2026-04-30 21:09 24.70497 121.86417 26192 ft 493 kts 161°
2026-04-30 21:09 24.67334 121.87902 26680 ft 496 kts 161°
2026-04-30 21:09 24.64149 121.89396 27196 ft 499 kts 161°
2026-04-30 21:10 24.60949 121.90897 27698 ft 502 kts 161°
2026-04-30 21:10 24.57727 121.92407 28154 ft 505 kts 161°
2026-04-30 21:10 24.54484 121.93926 28600 ft 508 kts 161°
2026-04-30 21:10 24.51223 121.95454 29044 ft 511 kts 161°
2026-04-30 21:11 24.47944 121.96988 29468 ft 514 kts 161°
2026-04-30 21:11 24.44691 121.98510 29832 ft 517 kts 162°
2026-04-30 21:11 24.41378 122.00059 30272 ft 518 kts 162°
2026-04-30 21:11 24.38014 122.01531 30743 ft 509 kts 168°
2026-04-30 21:12 24.34571 122.02135 31152 ft 496 kts 185°
2026-04-30 21:12 24.31236 122.01763 31682 ft 483 kts 199°
2026-04-30 21:12 24.28084 122.00650 32132 ft 475 kts 204°
2026-04-30 21:12 24.24936 121.99514 32563 ft 476 kts 202°
2026-04-30 21:13 24.21778 121.98439 33086 ft 475 kts 202°
2026-04-30 21:13 24.18618 121.97398 33646 ft 472 kts 202°
2026-04-30 21:13 24.15472 121.96373 34074 ft 473 kts 202°
2026-04-30 21:13 24.12309 121.95340 34049 ft 474 kts 202°
2026-04-30 21:14 24.06029 121.93285 34051 ft 469 kts 202°
2026-04-30 21:14 23.99758 121.91299 34057 ft 469 kts 202°
2026-04-30 21:15 23.93446 121.89245 34061 ft 479 kts 202°
2026-04-30 21:15 23.87017 121.87137 34054 ft 482 kts 202°
2026-04-30 21:16 23.80600 121.85052 34053 ft 480 kts 202°
2026-04-30 21:16 23.74197 121.82991 34046 ft 479 kts 202°
2026-04-30 21:17 23.67811 121.80936 34029 ft 478 kts 202°
2026-04-30 21:17 23.61430 121.78881 34033 ft 478 kts 202°
2026-04-30 21:18 23.55076 121.76745 34035 ft 479 kts 202°
2026-04-30 21:18 23.48667 121.74725 34035 ft 480 kts 201°
2026-04-30 21:19 23.42299 121.72716 34022 ft 480 kts 202°
2026-04-30 21:19 23.35855 121.70645 34021 ft 480 kts 202°
2026-04-30 21:20 23.29504 121.68580 34030 ft 479 kts 202°
2026-04-30 21:20 23.23112 121.66509 34027 ft 480 kts 202°
2026-04-30 21:21 23.16706 121.64438 34013 ft 480 kts 202°
2026-04-30 21:22 23.07116 121.61331 34002 ft 479 kts 202°
2026-04-30 21:23 22.94332 121.57211 34000 ft 479 kts 201°
2026-04-30 21:23 22.84731 121.54167 34000 ft 479 kts 201°
2026-04-30 21:24 22.78338 121.52136 34000 ft 479 kts 201°
2026-04-30 21:24 22.71943 121.50105 34001 ft 479 kts 201°
2026-04-30 21:25 22.62539 121.46626 34004 ft 474 kts 207°
2026-04-30 21:26 22.53401 121.42549 33998 ft 474 kts 207°
2026-04-30 21:27 22.44236 121.38512 33974 ft 474 kts 207°
2026-04-30 21:27 22.38115 121.35830 33974 ft 475 kts 207°
2026-04-30 21:28 22.28980 121.31833 33970 ft 474 kts 207°
2026-04-30 21:29 22.19800 121.27820 33970 ft 475 kts 207°
2026-04-30 21:30 22.04498 121.21140 33971 ft 475 kts 207°
2026-04-30 21:31 21.89206 121.14473 33973 ft 474 kts 207°
2026-04-30 21:32 21.80045 121.10477 33972 ft 474 kts 207°
2026-04-30 21:32 21.73937 121.07816 33971 ft 473 kts 207°
2026-04-30 21:33 21.64773 121.03829 33976 ft 474 kts 206°
2026-04-30 21:34 21.58659 121.01172 33974 ft 474 kts 206°
2026-04-30 21:34 21.49483 120.97190 33975 ft 474 kts 206°
2026-04-30 21:35 21.43360 120.94534 33972 ft 475 kts 206°
2026-04-30 21:35 21.37235 120.91882 33968 ft 475 kts 206°
2026-04-30 21:36 21.31110 120.89231 33963 ft 475 kts 206°
2026-04-30 21:37 21.18863 120.83938 33958 ft 475 kts 206°
2026-04-30 21:37 21.12766 120.81304 34094 ft 479 kts 206°
2026-04-30 21:38 21.09676 120.79970 34513 ft 478 kts 206°
2026-04-30 21:38 21.06601 120.78646 35071 ft 474 kts 206°
2026-04-30 21:38 21.03550 120.77352 35653 ft 471 kts 204°
2026-04-30 21:38 21.00418 120.76322 36170 ft 471 kts 199°
2026-04-30 21:39 20.97219 120.75573 36636 ft 472 kts 195°
2026-04-30 21:39 20.93958 120.75129 37027 ft 473 kts 190°
2026-04-30 21:39 20.90686 120.74826 37483 ft 470 kts 190°
2026-04-30 21:39 20.87438 120.74540 37931 ft 467 kts 190°
2026-04-30 21:40 20.82000 120.74055 37957 ft 467 kts 190°
2026-04-30 21:40 20.75587 120.73464 37954 ft 459 kts 190°
2026-04-30 21:41 20.69233 120.72857 37956 ft 458 kts 190°
2026-04-30 21:41 20.62891 120.72247 37951 ft 458 kts 190°
2026-04-30 21:42 20.56589 120.71643 37962 ft 458 kts 190°
2026-04-30 21:42 20.50239 120.71034 37950 ft 459 kts 190°
2026-04-30 21:43 20.43878 120.70427 37958 ft 459 kts 190°
2026-04-30 21:43 20.37507 120.69819 37956 ft 460 kts 190°
2026-04-30 21:44 20.31132 120.69212 37945 ft 460 kts 190°
2026-04-30 21:44 20.24752 120.68604 37952 ft 461 kts 190°
2026-04-30 21:45 20.18365 120.67997 37946 ft 461 kts 189°
2026-04-30 21:45 20.11979 120.67388 37939 ft 460 kts 189°
2026-04-30 21:46 20.05598 120.66782 37945 ft 460 kts 189°
2026-04-30 21:46 19.99218 120.66177 37942 ft 460 kts 189°
2026-04-30 21:47 19.92839 120.65571 37936 ft 460 kts 189°
2026-04-30 21:47 19.86468 120.64968 37936 ft 459 kts 189°
2026-04-30 21:48 19.80144 120.64371 37932 ft 459 kts 189°
2026-04-30 21:48 19.73788 120.63769 37933 ft 459 kts 189°
2026-04-30 21:49 19.67430 120.63167 37936 ft 459 kts 189°
2026-04-30 21:49 19.61076 120.62566 37932 ft 458 kts 189°
2026-04-30 21:50 19.54720 120.61968 37927 ft 459 kts 189°
2026-04-30 21:50 19.48359 120.61365 37928 ft 459 kts 189°
2026-04-30 21:51 19.42000 120.60764 37926 ft 459 kts 189°
2026-04-30 21:51 19.35638 120.60168 37927 ft 459 kts 189°
2026-04-30 21:52 19.29283 120.59572 37926 ft 458 kts 189°
2026-04-30 21:52 19.22929 120.58971 37925 ft 458 kts 189°
2026-04-30 21:53 19.16578 120.58375 37919 ft 458 kts 189°
2026-04-30 21:53 19.10217 120.57778 37924 ft 459 kts 189°
2026-04-30 21:54 19.03857 120.57182 37924 ft 459 kts 189°
2026-04-30 21:54 18.97496 120.56585 37917 ft 459 kts 189°
2026-04-30 21:55 18.91136 120.55989 37917 ft 459 kts 189°
2026-04-30 21:55 18.84774 120.55394 37916 ft 459 kts 189°
2026-04-30 21:56 18.78417 120.54801 37916 ft 459 kts 189°
2026-04-30 21:56 18.72061 120.54207 37917 ft 458 kts 189°
2026-04-30 21:57 18.65709 120.53613 37917 ft 458 kts 189°
2026-04-30 21:57 18.59358 120.53019 37918 ft 458 kts 189°
2026-04-30 21:58 18.53004 120.52427 37917 ft 458 kts 189°
2026-04-30 21:58 18.46650 120.51835 37916 ft 458 kts 189°
2026-04-30 21:59 18.40300 120.51243 37916 ft 458 kts 189°
2026-04-30 22:00 18.30772 120.50357 37917 ft 458 kts 189°
2026-04-30 22:00 18.21245 120.49472 37917 ft 458 kts 189°
2026-04-30 22:01 18.14893 120.48882 37917 ft 458 kts 189°
2026-04-30 22:01 18.08591 120.48298 37916 ft 458 kts 189°
2026-04-30 22:02 18.02248 120.47710 37916 ft 458 kts 189°
2026-04-30 22:02 17.95901 120.47121 37913 ft 458 kts 189°
2026-04-30 22:03 17.89556 120.46536 37917 ft 457 kts 189°
2026-04-30 22:03 17.83216 120.45949 37918 ft 458 kts 189°
2026-04-30 22:04 17.76869 120.45362 37915 ft 458 kts 189°
2026-04-30 22:05 17.67354 120.44482 37918 ft 458 kts 189°
2026-04-30 22:05 17.60998 120.43896 37917 ft 458 kts 189°
2026-04-30 22:06 17.54644 120.43310 37914 ft 458 kts 189°
2026-04-30 22:06 17.45127 120.42434 37916 ft 458 kts 189°
2026-04-30 22:07 17.38780 120.41850 37917 ft 458 kts 189°
2026-04-30 22:07 17.32437 120.41266 37918 ft 457 kts 189°
2026-04-30 22:08 17.26091 120.40683 37926 ft 458 kts 189°
2026-04-30 22:08 17.19744 120.40101 37924 ft 458 kts 189°
2026-04-30 22:09 17.13388 120.39517 37928 ft 459 kts 189°
2026-04-30 22:09 17.07064 120.38936 37928 ft 459 kts 188°
2026-04-30 22:10 17.00696 120.38354 37928 ft 460 kts 188°
2026-04-30 22:10 16.94328 120.37770 37933 ft 460 kts 188°
2026-04-30 22:11 16.84759 120.36894 37936 ft 460 kts 188°
2026-04-30 22:12 16.78376 120.36310 37936 ft 461 kts 188°
2026-04-30 22:12 16.71955 120.35978 37939 ft 464 kts 181°
2026-04-30 22:13 16.65500 120.36695 37944 ft 467 kts 176°
2026-04-30 22:13 16.59054 120.37601 37949 ft 468 kts 176°
2026-04-30 22:14 16.52597 120.38482 37941 ft 468 kts 176°
2026-04-30 22:14 16.46136 120.39344 37950 ft 468 kts 176°
2026-04-30 22:15 16.39683 120.40198 37944 ft 467 kts 176°
2026-04-30 22:15 16.33232 120.41053 37954 ft 467 kts 176°
2026-04-30 22:16 16.26759 120.41905 37333 ft 477 kts 176°
2026-04-30 22:16 16.23463 120.42340 36623 ft 476 kts 176°
2026-04-30 22:17 16.13599 120.43649 34012 ft 479 kts 175°
2026-04-30 22:17 16.10284 120.44086 33039 ft 481 kts 175°
2026-04-30 22:17 16.03616 120.44968 31107 ft 485 kts 175°
2026-04-30 22:18 16.00263 120.45410 30239 ft 485 kts 175°
2026-04-30 22:18 15.93651 120.46285 28819 ft 479 kts 175°
2026-04-30 22:19 15.87031 120.47159 27397 ft 473 kts 174°
2026-04-30 22:19 15.83779 120.47588 26701 ft 470 kts 174°
2026-04-30 22:19 15.77339 120.48437 25320 ft 463 kts 174°
2026-04-30 22:20 15.74154 120.48855 24639 ft 460 kts 174°
2026-04-30 22:20 15.67855 120.49684 23308 ft 452 kts 173°
2026-04-30 22:20 15.64786 120.50082 22676 ft 449 kts 173°
2026-04-30 22:21 15.61697 120.50479 22023 ft 445 kts 173°
2026-04-30 22:21 15.58637 120.50870 21393 ft 442 kts 173°
2026-04-30 22:21 15.55599 120.51260 20771 ft 438 kts 173°
2026-04-30 22:21 15.52589 120.51646 20160 ft 434 kts 173°
2026-04-30 22:22 15.49570 120.52034 19548 ft 430 kts 173°
2026-04-30 22:22 15.46654 120.52409 18948 ft 426 kts 173°
2026-04-30 22:22 15.43720 120.52790 18349 ft 423 kts 173°
2026-04-30 22:22 15.40815 120.53169 17752 ft 420 kts 172°
2026-04-30 22:23 15.37930 120.53547 17163 ft 416 kts 172°
2026-04-30 22:23 15.35064 120.53924 16561 ft 414 kts 172°
2026-04-30 22:23 15.32219 120.54296 15972 ft 411 kts 172°
2026-04-30 22:23 15.29388 120.54667 15378 ft 409 kts 172°
2026-04-30 22:24 15.26576 120.55034 14794 ft 406 kts 172°
2026-04-30 22:24 15.23782 120.55399 14208 ft 404 kts 172°
2026-04-30 22:24 15.21001 120.55761 13621 ft 401 kts 172°
2026-04-30 22:24 15.18318 120.56352 13028 ft 393 kts 158°
2026-04-30 22:25 15.15997 120.57760 12459 ft 382 kts 143°
2026-04-30 22:25 15.13854 120.59355 12121 ft 372 kts 145°
2026-04-30 22:25 15.11811 120.60768 11882 ft 336 kts 146°
2026-04-30 22:25 15.09944 120.62032 11654 ft 306 kts 146°
2026-04-30 22:26 15.06196 120.63167 10610 ft 279 kts 186°
2026-04-30 22:26 15.04299 120.62624 10235 ft 287 kts 199°
2026-04-30 22:26 15.02454 120.61870 10191 ft 284 kts 199°
2026-04-30 22:27 15.00627 120.61121 10140 ft 281 kts 200°
2026-04-30 22:27 14.98835 120.60345 9910 ft 278 kts 201°
2026-04-30 22:27 14.95893 120.59055 9326 ft 276 kts 201°
2026-04-30 22:28 14.92397 120.57513 8696 ft 267 kts 201°
2026-04-30 22:28 14.90708 120.56760 8424 ft 262 kts 201°
2026-04-30 22:29 14.85742 120.54524 7333 ft 257 kts 201°
2026-04-30 22:29 14.84110 120.53785 6948 ft 256 kts 201°
2026-04-30 22:30 14.79724 120.48868 5787 ft 283 kts 287°
2026-04-30 22:31 14.83525 120.45495 5307 ft 243 kts
2026-04-30 22:32 14.88449 120.46581 5310 ft 237 kts 17°
2026-04-30 22:32 14.91533 120.47371 5305 ft 228 kts 17°
2026-04-30 22:33 14.96142 120.48549 4604 ft 219 kts 16°
2026-04-30 22:33 14.99039 120.49283 4320 ft 215 kts 16°
2026-04-30 22:34 15.03510 120.50409 3750 ft 221 kts 15°
2026-04-30 22:35 15.06390 120.51385 3189 ft 213 kts 23°
2026-04-30 22:36 15.11207 120.53307 1993 ft 152 kts 22°
2026-04-30 22:36 15.12195 120.53701 1784 ft 153 kts 21°
2026-04-30 22:37 15.15126 120.54867 1084 ft 148 kts 20°
2026-04-30 22:37 15.16087 120.55252 827 ft 147 kts 20°
2026-04-30 22:37 15.17984 120.56001 445 ft 140 kts 20°
2026-04-30 22:38 15.19347 120.56539 441 ft 70 kts 21°
2026-04-30 22:38 15.19661 120.56507 436 ft 12 kts 291°
2026-04-30 22:39 15.19692 120.56424 428 ft 13 kts 291°
2026-04-30 22:39 15.19777 120.56228 427 ft 9 kts 315°
2026-04-30 22:40 15.19939 120.56206 430 ft 8 kts 291°
2026-04-30 22:41 15.19947 120.56183 440 ft 0 kts 291°